[[{"header":{"parameterUnit":"m.s-1","parameterCategory":1,"la1":30.2992,"la2":30.254,"lo1":-89.0895,"lo2":-89.0443,"dy":0.0025,"dx":0.0025,"nx":19,"ny":19,"refTime":"2026-03-31T21:00:00:Z","depth":0,"parameterNumber":2,"parameterNumberName":"U-component_of_WINDS"},"data":[0,0,0,-4.1686,-4.1688,-4.1787,-4.1787,-4.1932,-4.1933,0,0,0,0,0,0,0,0,0,0,0,-4.1666,-4.1667,-4.1686,-4.1688,-4.1787,-4.1787,-4.1931,-4.1933,0,0,0,0,0,0,0,0,0,0,0,-4.1665,-4.1667,-4.1668,-4.1689,-4.1787,-4.1787,-4.1931,-4.185,0,0,0,0,0,0,0,0,0,0,-4.1752,-4.1741,-4.1666,-4.1668,-4.1689,-4.1787,-4.1787,-4.1846,-4.1855,-4.1894,0,-4.1929,0,-4.1933,-4.1944,-4.1944,0,0,0,-4.1682,-4.1734,-4.1752,-4.1668,-4.169,-4.1787,-4.1741,-4.1851,-4.1862,-4.1906,-4.1931,-4.1936,-4.1936,-4.1945,-4.1945,-4.2185,-4.2187,0,0,-4.1676,-4.1689,-4.1745,-4.1759,-4.1743,-4.1738,-4.1744,-4.1857,-4.1886,-4.1931,-4.1939,-4.1938,-4.1946,-4.1947,-4.2184,-4.2186,0,0,0,-4.1665,-4.1685,-4.17,-4.1754,-4.177,-4.1741,-4.1748,-4.188,-4.1884,-4.194,-4.194,-4.1947,-4.1949,-4.2182,-4.2184,-4.2265,0,0,0,-4.1661,-4.1678,-4.1698,-4.1707,-4.1768,-4.1826,-4.1769,-4.1877,-4.1889,-4.1939,-4.1947,-4.195,-4.2181,-4.2183,-4.2259,-4.23,0,0,0,-4.1656,-4.1678,-4.1695,-4.1707,-4.175,-4.1824,-4.1834,-4.1879,-4.1889,-4.1944,-4.1951,-4.218,-4.2183,-4.2254,-4.2292,-4.2365,0,0,0,-4.1654,-4.1766,-4.1696,-4.1821,-4.1749,-4.1873,-4.1833,-4.1926,-4.1983,-4.1947,-4.2181,-4.2184,-4.2252,-4.2287,-4.236,-4.2428,-4.2458,0,0,-4.1802,-4.1784,-4.1857,-4.1797,-4.1936,-4.1857,-4.2009,-4.2051,-4.2046,-4.214,-4.2145,-4.2261,-4.2291,-4.2364,-4.2625,-4.2649,0,0,0,-4.1908,-4.196,-4.1994,-4.2048,-4.2082,-4.2115,-4.2132,-4.2148,-4.2227,-4.2096,-4.2308,-4.2326,-4.2368,-4.24,-4.242,-4.2456,-4.22,-4.22,-4.2199,-4.2132,-4.212,-4.2239,-4.2239,-4.2293,-4.2309,-4.2352,-4.2376,-4.2348,-4.2399,-4.2426,-4.2585,-4.2623,-4.2638,-4.2675,-4.2463,-4.2463,-4.2463,-4.2464,-4.2346,-4.2417,-4.2378,-4.2479,-4.2466,-4.2552,-4.2574,-4.2552,-4.263,-4.2564,-4.2601,-4.2527,-4.2665,-4.2696,-4.247,-4.2468,-4.2468,-4.2467,-4.2467,-4.249,-4.2521,-4.2539,-4.2616,-4.2679,-4.2676,-4.2753,-4.2739,-4.2727,-4.2763,-4.2789,-4.2788,-4.2783,-4.2777,-4.2778,-4.2778,-4.2779,-4.2779,-4.278,-4.2631,-4.2648,-4.2713,-4.276,-4.2794,-4.2836,-4.2856,-4.289,-4.2923,-4.2907,-4.2907,-4.2874,-4.2681,-4.2631,-4.2788,-4.2787,-4.2785,-4.2785,-4.2784,-4.2848,-4.2797,-4.2898,-4.2932,-4.2986,-4.3049,-4.3031,-4.31,-4.3126,-4.3165,-4.3125,-4.2985,-4.2966,-4.295,-4.2909,-4.3128,-4.3128,-4.3128,-4.3128,-4.2968,-4.2957,-4.3058,-4.3112,-4.3165,-4.3159,-4.3276,-4.3294,-4.3304,-4.332,-4.3287,-4.3232,-4.3216,-4.3207,-4.3185,-4.3146,-4.3421,-4.3421,-4.3421,-4.31,-4.3094,-4.3194,-4.3203,-4.3245,-4.3282,-4.3391,-4.3456,-4.3458,-4.3433,-4.3331,-4.3319,-4.323,-4.3203,-4.3171,-4.3138,-4.3066,0,0]},{"header":{"parameterUnit":"m.s-1","parameterCategory":1,"la1":30.2992,"la2":30.254,"lo1":-89.0895,"lo2":-89.0443,"dy":0.0025,"dx":0.0025,"nx":19,"ny":19,"refTime":"2026-03-31T21:00:00:Z","depth":0,"parameterNumber":3,"parameterNumberName":"V-component_of_WINDS"},"data":[0,0,0,2.335,2.3353,2.3531,2.3532,2.3722,2.3723,0,0,0,0,0,0,0,0,0,0,0,2.3275,2.3276,2.335,2.3354,2.3531,2.3532,2.3722,2.3723,0,0,0,0,0,0,0,0,0,0,0,2.3275,2.3276,2.3276,2.3354,2.3531,2.3532,2.3721,2.3601,0,0,0,0,0,0,0,0,0,0,2.3435,2.3344,2.3275,2.3276,2.3355,2.353,2.3532,2.3595,2.3608,2.3626,0,2.3635,0,2.3682,2.3734,2.3734,0,0,0,2.3371,2.3333,2.3401,2.3276,2.3357,2.353,2.3456,2.3603,2.3617,2.3642,2.3639,2.3647,2.3685,2.3735,2.3735,2.3782,2.3781,0,0,2.3361,2.3295,2.3391,2.3409,2.3379,2.345,2.3461,2.3612,2.3604,2.3639,2.3652,2.3688,2.3736,2.3737,2.3783,2.3782,0,0,0,2.3321,2.3287,2.3353,2.34,2.3435,2.3455,2.3467,2.3597,2.3624,2.3654,2.3691,2.3737,2.3739,2.3783,2.3782,2.3692,0,0,0,2.3316,2.3265,2.3348,2.3309,2.3431,2.3518,2.3448,2.3613,2.3633,2.369,2.3737,2.374,2.3784,2.3783,2.3696,2.3661,0,0,0,2.3271,2.326,2.3278,2.3305,2.3379,2.3517,2.3553,2.3619,2.3654,2.3734,2.374,2.3785,2.3783,2.37,2.3667,2.3656,0,0,0,2.3205,2.3194,2.3275,2.3277,2.3377,2.3459,2.3553,2.3618,2.3675,2.3737,2.3784,2.3783,2.3701,2.3671,2.3659,2.3635,2.3619,0,0,2.3155,2.3185,2.3192,2.327,2.3321,2.3438,2.3476,2.3591,2.3658,2.3737,2.3739,2.3695,2.3667,2.3656,2.3547,2.3533,0,0,0,2.3154,2.3158,2.3186,2.3239,2.3326,2.3399,2.3515,2.3558,2.3628,2.3685,2.3689,2.3674,2.3671,2.3663,2.3651,2.3653,2.3775,2.3776,2.3776,2.2991,2.3078,2.3095,2.3203,2.3252,2.3373,2.3421,2.35,2.3572,2.3571,2.3596,2.3519,2.3507,2.3499,2.3499,2.3589,2.3589,2.3588,2.3588,2.2927,2.2948,2.3045,2.3097,2.3189,2.3233,2.3348,2.3398,2.3453,2.3507,2.3508,2.3561,2.3481,2.3486,2.3582,2.3583,2.3584,2.3584,2.3585,2.2832,2.2857,2.2909,2.2995,2.305,2.316,2.3209,2.329,2.3367,2.3368,2.3404,2.3406,2.342,2.3379,2.3379,2.3379,2.3378,2.3378,2.3378,2.2713,2.2775,2.2806,2.2898,2.2943,2.3012,2.3132,2.3179,2.3251,2.3307,2.3308,2.3381,2.3456,2.3474,2.3374,2.3375,2.3375,2.3376,2.3376,2.2621,2.2655,2.2703,2.2748,2.2863,2.2914,2.3017,2.3104,2.3154,2.3176,2.3249,2.329,2.3328,2.3338,2.3354,2.3229,2.3229,2.3229,2.3229,2.2542,2.2569,2.2637,2.2704,2.2778,2.2876,2.2928,2.3021,2.3122,2.3159,2.3188,2.3215,2.3221,2.3256,2.3267,2.3284,2.3144,2.3144,2.3144,2.2492,2.2529,2.2558,2.2658,2.2754,2.2834,2.2887,2.2959,2.3081,2.3142,2.319,2.3193,2.3238,2.3248,2.3311,2.3327,2.3359,0,0]}]]